When you browse on this site, cookies collect data to enhance your experience and personalize the content and advertising you see.
Visit our Privacy Policy to learn more. By continuing to use the site, you agree to this use of cookies and data.
  • Em Portugal
  • Lista de países
  • Para 7 dias
  • Temperatura da água
  • Mapa do tempo
  • Widgets de tempo
  • user-avatar
    Iniciar Sessão

    Previsão horária em Yulara

    Hoje, 22 Setembro, Domingo

    Tempo Temperatura Precipitação Vento Pressão Humidade
    00:00 +8°C° 0 mm 5 m/s 723 mmHg 31%
    01:00 +7°C° 0 mm 5 m/s 723 mmHg 33%
    02:00 +7°C° 0 mm 5 m/s 723 mmHg 36%
    03:00 +6°C° 0 mm 5 m/s 723 mmHg 38%
    04:00 +6°C° 0 mm 5 m/s 723 mmHg 40%
    05:00 +5°C° 0 mm 5 m/s 723 mmHg 42%
    06:00 +5°C° 0 mm 5 m/s 724 mmHg 44%
    07:00 +8°C° 0 mm 6 m/s 724 mmHg 38%
    08:00 +11°C° 0 mm 7 m/s 725 mmHg 32%
    09:00 +16°C° 0 mm 7 m/s 725 mmHg 23%
    10:00 +18°C° 0 mm 7 m/s 725 mmHg 20%
    11:00 +20°C° 0 mm 6 m/s 725 mmHg 18%
    12:00 +22°C° 0 mm 6 m/s 724 mmHg 16%
    13:00 +23°C° 0 mm 5 m/s 724 mmHg 14%
    14:00 +25°C° 0 mm 5 m/s 723 mmHg 13%
    15:00 +26°C° 0 mm 4 m/s 723 mmHg 12%
    16:00 +23°C° 0 mm 4 m/s 723 mmHg 13%
    17:00 +22°C° 0 mm 3 m/s 723 mmHg 15%
    18:00 +20°C° 0 mm 3 m/s 723 mmHg 17%
    19:00 +19°C° 0 mm 4 m/s 724 mmHg 18%
    20:00 +18°C° 0 mm 4 m/s 724 mmHg 18%
    21:00 +17°C° 0 mm 4 m/s 725 mmHg 19%
    22:00 +15°C° 0 mm 5 m/s 725 mmHg 22%
    23:00 +14°C° 0 mm 5 m/s 725 mmHg 24%

    Amanhã, 23 Setembro, Segunda-feira

    Tempo Temperatura Precipitação Vento Pressão Humidade
    00:00 +13°C° 0 mm 5 m/s 725 mmHg 26%
    01:00 +12°C° 0 mm 5 m/s 725 mmHg 27%
    02:00 +12°C° 0 mm 5 m/s 725 mmHg 29%
    03:00 +11°C° 0 mm 6 m/s 724 mmHg 30%
    04:00 +10°C° 0 mm 5 m/s 725 mmHg 31%
    05:00 +10°C° 0 mm 5 m/s 725 mmHg 33%
    06:00 +10°C° 0 mm 4 m/s 726 mmHg 34%
    07:00 +11°C° 0 mm 6 m/s 726 mmHg 31%
    08:00 +14°C° 0 mm 7 m/s 726 mmHg 28%
    09:00 +15°C° 0 mm 8 m/s 726 mmHg 25%
    10:00 +17°C° 0 mm 8 m/s 726 mmHg 23%
    11:00 +20°C° 0 mm 7 m/s 727 mmHg 21%
    12:00 +22°C° 0 mm 7 m/s 727 mmHg 19%
    13:00 +22°C° 0 mm 7 m/s 726 mmHg 21%
    14:00 +22°C° 0 mm 7 m/s 726 mmHg 23%
    15:00 +22°C° 0 mm 6 m/s 725 mmHg 24%
    16:00 +20°C° 0 mm 6 m/s 725 mmHg 29%
    17:00 +19°C° 0 mm 5 m/s 725 mmHg 35%
    18:00 +17°C° 0 mm 5 m/s 725 mmHg 40%
    19:00 +16°C° 0 mm 5 m/s 725 mmHg 45%
    20:00 +15°C° 0 mm 4 m/s 726 mmHg 49%
    21:00 +14°C° 0 mm 4 m/s 726 mmHg 54%
    22:00 +13°C° 0.1 mm 4 m/s 726 mmHg 57%
    23:00 +13°C° 0.1 mm 4 m/s 726 mmHg 59%

    Depois de amanhã, 24 Setembro, Terça-feira

    Tempo Temperatura Precipitação Vento Pressão Humidade
    00:00 +13°C° 0.1 mm 5 m/s 726 mmHg 62%
    01:00 +13°C° 0 mm 5 m/s 725 mmHg 59%
    02:00 +13°C° 0 mm 5 m/s 725 mmHg 56%
    03:00 +14°C° 0 mm 5 m/s 724 mmHg 53%
    04:00 +14°C° 0 mm 5 m/s 725 mmHg 50%
    05:00 +14°C° 0 mm 5 m/s 725 mmHg 47%
    06:00 +14°C° 0 mm 5 m/s 725 mmHg 44%
    07:00 +15°C° 0 mm 5 m/s 726 mmHg 41%
    08:00 +15°C° 0 mm 6 m/s 726 mmHg 37%
    09:00 +16°C° 0 mm 6 m/s 727 mmHg 33%
    10:00 +15°C° 0.4 mm 6 m/s 727 mmHg 42%
    11:00 +14°C° 0.4 mm 5 m/s 727 mmHg 51%
    12:00 +13°C° 0.4 mm 5 m/s 727 mmHg 59%
    13:00 +13°C° 0.4 mm 5 m/s 726 mmHg 64%
    14:00 +12°C° 0.4 mm 5 m/s 725 mmHg 69%
    15:00 +12°C° 0.4 mm 5 m/s 724 mmHg 74%
    16:00 +12°C° 0.1 mm 5 m/s 724 mmHg 74%
    17:00 +12°C° 0.1 mm 4 m/s 724 mmHg 74%
    18:00 +12°C° 0.1 mm 4 m/s 725 mmHg 75%
    19:00 +11°C° 0 mm 4 m/s 725 mmHg 77%
    20:00 +11°C° 0 mm 3 m/s 725 mmHg 80%
    21:00 +10°C° 0 mm 3 m/s 726 mmHg 83%
    22:00 +10°C° 0 mm 3 m/s 725 mmHg 84%
    23:00 +10°C° 0 mm 3 m/s 725 mmHg 86%

    25 Setembro, Quarta-feira

    Tempo Temperatura Precipitação Vento Pressão Humidade
    00:00 +9°C° 0 mm 3 m/s 725 mmHg 88%
    01:00 +9°C° 0 mm 3 m/s 724 mmHg 88%
    02:00 +10°C° 0 mm 3 m/s 724 mmHg 88%
    03:00 +10°C° 0 mm 3 m/s 724 mmHg 88%
    04:00 +9°C° 0 mm 3 m/s 724 mmHg 87%
    05:00 +9°C° 0 mm 3 m/s 724 mmHg 86%
    06:00 +9°C° 0 mm 3 m/s 724 mmHg 85%
    07:00 +12°C° 0 mm 4 m/s 724 mmHg 72%
    08:00 +15°C° 0 mm 5 m/s 725 mmHg 59%
    09:00 +19°C° 0 mm 6 m/s 725 mmHg 47%
    10:00 +20°C° 0 mm 6 m/s 724 mmHg 42%
    11:00 +22°C° 0 mm 5 m/s 724 mmHg 37%
    12:00 +25°C° 0 mm 5 m/s 724 mmHg 33%
    13:00 +26°C° 0 mm 4 m/s 723 mmHg 31%
    14:00 +27°C° 0 mm 4 m/s 722 mmHg 28%
    15:00 +27°C° 0 mm 3 m/s 721 mmHg 26%
    16:00 +26°C° 0 mm 3 m/s 721 mmHg 28%
    17:00 +25°C° 0 mm 2 m/s 721 mmHg 30%
    18:00 +24°C° 0 mm 2 m/s 721 mmHg 32%
    19:00 +23°C° 0 mm 2 m/s 722 mmHg 34%
    20:00 +21°C° 0 mm 3 m/s 722 mmHg 37%
    21:00 +20°C° 0 mm 3 m/s 722 mmHg 39%
    22:00 +19°C° 0 mm 3 m/s 722 mmHg 40%
    23:00 +19°C° 0 mm 3 m/s 722 mmHg 41%

    26 Setembro, Quinta-feira

    Tempo Temperatura Precipitação Vento Pressão Humidade
    00:00 +19°C° 0 mm 3 m/s 722 mmHg 42%
    01:00 +18°C° 0 mm 3 m/s 721 mmHg 45%
    02:00 +17°C° 0 mm 3 m/s 721 mmHg 49%
    03:00 +16°C° 0 mm 3 m/s 721 mmHg 52%
    04:00 +14°C° 0 mm 3 m/s 721 mmHg 53%
    05:00 +14°C° 0 mm 3 m/s 721 mmHg 54%
    06:00 +13°C° 0 mm 3 m/s 722 mmHg 55%
    07:00 +17°C° 0 mm 4 m/s 722 mmHg 48%
    08:00 +20°C° 0 mm 5 m/s 722 mmHg 40%
    09:00 +23°C° 0 mm 5 m/s 723 mmHg 32%
    10:00 +25°C° 0 mm 5 m/s 723 mmHg 30%
    11:00 +27°C° 0 mm 4 m/s 722 mmHg 27%
    12:00 +29°C° 0 mm 3 m/s 722 mmHg 24%
    13:00 +29°C° 0 mm 3 m/s 721 mmHg 23%
    14:00 +30°C° 0 mm 2 m/s 720 mmHg 22%
    15:00 +31°C° 0 mm 2 m/s 720 mmHg 21%
    16:00 +29°C° 0 mm 2 m/s 720 mmHg 23%
    17:00 +28°C° 0 mm 1 m/s 719 mmHg 25%
    18:00 +27°C° 0 mm 1 m/s 719 mmHg 27%
    19:00 +27°C° 0 mm 2 m/s 720 mmHg 28%
    20:00 +27°C° 0 mm 2 m/s 720 mmHg 28%
    21:00 +26°C° 0 mm 3 m/s 721 mmHg 28%
    22:00 +26°C° 0 mm 3 m/s 720 mmHg 29%
    23:00 +25°C° 0 mm 3 m/s 720 mmHg 30%

    27 Setembro, Sexta-feira

    Tempo Temperatura Precipitação Vento Pressão Humidade
    00:00 +25°C° 0 mm 3 m/s 720 mmHg 31%
    01:00 +24°C° 0 mm 3 m/s 720 mmHg 32%
    02:00 +24°C° 0 mm 3 m/s 719 mmHg 33%
    03:00 +22°C° 0 mm 3 m/s 719 mmHg 34%
    04:00 +22°C° 0 mm 3 m/s 719 mmHg 34%
    05:00 +22°C° 0 mm 3 m/s 720 mmHg 34%
    06:00 +21°C° 0 mm 3 m/s 720 mmHg 35%
    07:00 +23°C° 0 mm 4 m/s 720 mmHg 32%
    08:00 +25°C° 0 mm 4 m/s 721 mmHg 29%
    09:00 +27°C° 0 mm 5 m/s 721 mmHg 26%
    10:00 +28°C° 0 mm 4 m/s 721 mmHg 24%
    11:00 +30°C° 0 mm 4 m/s 720 mmHg 22%
    12:00 +33°C° 0 mm 4 m/s 720 mmHg 20%
    13:00 +33°C° 0 mm 4 m/s 720 mmHg 20%
    14:00 +33°C° 0 mm 5 m/s 719 mmHg 20%
    15:00 +34°C° 0 mm 5 m/s 718 mmHg 20%
    16:00 +33°C° 0 mm 4 m/s 719 mmHg 22%
    17:00 +32°C° 0 mm 4 m/s 719 mmHg 24%
    18:00 +29°C° 0 mm 3 m/s 719 mmHg 26%
    19:00 +28°C° 0 mm 3 m/s 719 mmHg 28%
    20:00 +27°C° 0 mm 3 m/s 719 mmHg 30%
    21:00 +25°C° 0 mm 3 m/s 719 mmHg 32%
    22:00 +25°C° 0 mm 3 m/s 719 mmHg 33%
    23:00 +24°C° 0 mm 3 m/s 719 mmHg 34%
    Mostrar mais